Temperature
5 4 4 4 4 4 4 4 3 3 4 4 4 4 4 4 4 4 4 4 4 4 4 4 4 4 4 4 4 4 4 4 4 4 4 4 4 4
4 4 4 4 4 3 3 3 3 3 3 3 3 3 3 3 3 3 3 3 4 4 4 4 4 4 4 4 3 3 3 3 3 3 3 3 4 4
4 3 3 3 3 3 3 3 2 2 2 2 3 3 3 3 3 3 3 3 3 3 3 3 3 3 3 3 3 3 3 3 3 3 3 3 3 3
3 3 3 2 2 2 2 2 2 2 2 2 2 2 2 2 2 2 2 2 2 2 2 2 2 3 3 2 2 2 2 2 2 2 2 2 2 2
2 2 2 2 2 2 2 2 2 1 1 1 1 1 1 1 1 1 2 2 2 2 2 2 2 2 2 2 2 2 2 2 2 2 2 2 2 2
2 2 1 1 1 1 1 1 1 1 1 1 1 1 1 1 1 1 1 1 1 1 1 1 1 1 1 1 1 1 2 1 1 1 1 1 1 1
1 1 1 1 1 1 1 1 1 0 0 0 0 0 0 -0 -0 -0 -0 -0 -0 -0 0 0 0 0 0 1 1 1 1 1 1 1 1 1 1 1
0 0 0 0 1 1 1 0 0 -0 -0 -0 -0 -0 -0 -0 -1 -1 -1 -1 -1 -1 -1 -0 -1 -0 -0 -0 0 0 0 0 0 0 0 0 0 1
-0 -0 -0 -0 -0 -0 -0 -0 -0 -0 -0 -1 -1 -1 -1 -1 -1 -1 -1 -1 -1 -1 -1 -1 -1 -1 -1 -1 -0 -0 -0 -0 -0 -0 -0 -0 -0 -0
-0 -0 -1 -1 -1 -1 -1 -1 -1 -1 -1 -1 -1 -1 -1 -1 -1 -2 -2 -2 -2 -2 -2 -2 -2 -1 -1 -1 -1 -1 -1 -1 -1 -1 -1 -1 -1 -0
-1 -1 -1 -1 -1 -1 -1 -1 -1 -1 -2 -2 -2 -2 -2 -2 -2 -2 -2 -2 -2 -2 -2 -3 -2 -2 -2 -2 -2 -2 -1 -1 -1 -1 -1 -1 -1 -1
-2 -1 -1 -1 -2 -2 -2 -2 -2 -2 -2 -2 -2 -2 -2 -2 -2 -2 -3 -3 -3 -3 -3 -3 -3 -3 -3 -2 -2 -2 -2 -2 -2 -2 -1 -1 -1 -1
-2 -2 -2 -2 -2 -2 -2 -3 -3 -3 -2 -3 -3 -3 -3 -3 -3 -3 -3 -3 -3 -3 -3 -3 -3 -4 -4 -3 -3 -3 -3 -2 -2 -2 -2 -2 -2 -2
-3 -3 -3 -3 -3 -3 -3 -3 -3 -3 -3 -3 -3 -3 -3 -3 -3 -3 -3 -3 -4 -3 -3 -4 -4 -4 -4 -4 -4 -3 -3 -3 -3 -3 -3 -2 -2 -2
-4 -4 -4 -3 -3 -3 -3 -4 -4 -4 -4 -4 -4 -4 -4 -4 -4 -4 -4 -4 -4 -4 -4 -4 -4 -4 -5 -5 -4 -4 -4 -4 -4 -3 -3 -3 -3 -3
-4 -4 -4 -4 -4 -4 -4 -4 -4 -4 -4 -5 -5 -4 -4 -4 -4 -4 -4 -4 -4 -4 -4 -5 -5 -5 -5 -5 -5 -5 -5 -5 -4 -4 -4 -4 -4 -4
-5 -5 -5 -5 -5 -5 -5 -5 -5 -5 -5 -5 -5 -5 -5 -5 -5 -5 -5 -5 -5 -5 -5 -5 -5 -5 -5 -5 -5 -5 -5 -5 -5 -5 -5 -4 -4 -4
-5 -5 -5 -5 -5 -5 -5 -5 -5 -6 -6 -6 -6 -5 -5 -5 -5 -5 -5 -5 -5 -5 -5 -5 -5 -6 -6 -6 -5 -5 -5 -5 -5 -5 -5 -5 -5 -4
-6 -6 -6 -6 -6 -6 -6 -6 -6 -6 -6 -6 -6 -6 -6 -6 -6 -6 -6 -6 -6 -6 -6 -6 -6 -6 -6 -6 -6 -6 -6 -6 -6 -6 -6 -6 -5 -5
-6 -6 -6 -6 -6 -6 -6 -6 -6 -6 -6 -6 -6 -6 -6 -6 -6 -6 -6 -6 -6 -6 -6 -6 -6 -6 -7 -7 -6 -6 -6 -6 -6 -6 -6 -6 -6 -6
-6 -6 -6 -6 -6 -7 -7 -7 -7 -7 -7 -7 -7 -7 -7 -7 -6 -6 -6 -7 -7 -7 -7 -7 -7 -7 -7 -7 -7 -7 -6 -7 -7 -7 -7 -7 -6 -6
-7 -7 -7 -7 -7 -7 -7 -7 -7 -7 -7 -7 -7 -7 -7 -7 -7 -7 -7 -7 -7 -7 -7 -7 -7 -7 -7 -7 -7 -7 -7 -7 -7 -7 -7 -7 -7 -7
-7 -7 -7 -7 -7 -7 -7 -7 -7 -7 -7 -7 -7 -7 -7 -7 -7 -7 -7 -7 -7 -8 -8 -8 -8 -8 -8 -8 -8 -8 -8 -7 -7 -7 -7 -7 -7 -7
Wind_Speed
4 4 4 3 4 4 4 4 4 5 6 5 4 4 5 5 5 7 7 7 8 9 9 10 10 10 11 11 11 11 11 11 11 12 12 13 13 12
3 4 4 4 4 4 4 4 4 5 5 4 4 4 4 5 6 7 7 8 8 9 9 10 10 10 10 10 11 11 11 11 11 12 12 13 13 13
4 5 5 5 4 4 4 4 5 5 7 6 5 5 6 6 6 7 7 7 7 8 9 10 10 10 11 11 11 11 11 11 12 12 12 13 13 13
5 5 6 5 6 5 5 5 6 6 7 8 7 6 6 6 7 7 6 7 7 8 9 9 10 10 10 10 10 10 10 11 11 11 12 13 14 14
5 6 6 6 6 5 6 6 5 5 6 7 7 6 6 5 6 6 6 6 7 7 8 9 9 9 10 10 10 10 10 11 11 12 12 13 14 14
6 6 6 7 7 7 6 7 6 6 6 6 6 6 6 5 5 5 6 6 6 6 7 7 8 9 9 10 10 10 11 11 12 12 13 13 13 13
6 6 7 7 8 8 7 7 7 6 6 6 7 6 6 5 5 5 6 6 6 5 6 5 5 5 6 8 8 9 10 11 12 12 13 12 12 12
7 7 7 8 9 10 11 10 9 8 8 8 7 8 8 7 6 6 6 6 6 4 5 6 5 6 5 6 8 9 10 11 12 12 12 12 12 12
7 7 6 6 8 8 9 10 10 11 11 10 10 10 9 7 7 7 7 7 8 5 5 7 6 6 6 6 8 10 11 11 12 12 12 12 12 12
7 7 8 8 7 7 8 8 8 8 9 8 9 9 8 7 7 7 7 7 7 6 5 6 6 6 6 6 7 9 10 10 11 11 11 12 12 12
7 8 8 8 9 8 8 8 8 7 7 9 10 10 10 10 7 5 5 5 6 5 4 4 5 6 6 6 6 9 9 9 10 10 10 10 11 11
6 7 8 9 9 9 8 7 8 7 6 6 7 7 8 8 8 7 6 6 5 4 3 3 4 4 4 4 4 5 6 7 9 10 10 10 9 7
6 6 6 8 9 9 8 7 8 7 6 6 6 5 5 5 5 5 5 6 6 5 3 3 4 4 5 5 5 5 5 5 6 7 8 8 8 7
6 6 6 8 10 10 8 8 8 6 4 4 5 5 5 5 4 5 5 6 6 7 6 5 4 5 5 6 6 5 5 5 5 5 5 7 7 8
6 8 9 9 9 7 8 8 6 4 4 5 5 5 5 4 4 4 4 4 5 6 6 6 6 5 6 6 6 6 5 5 5 5 5 5 5 5
6 6 7 7 6 7 7 5 4 4 5 5 5 4 4 4 4 4 4 4 4 4 4 5 6 6 6 7 6 7 5 4 4 4 5 5 5 5
5 4 4 4 4 4 4 3 3 3 4 4 4 4 4 4 4 4 4 4 4 5 4 3 3 5 6 6 6 6 5 5 5 4 4 5 5 5
5 4 5 4 5 4 4 4 4 4 4 4 4 4 4 4 4 4 4 4 5 5 4 4 3 3 4 4 6 6 5 5 5 4 4 5 6 5
4 4 5 5 5 5 4 4 4 4 4 4 4 4 4 4 4 4 4 4 4 4 4 4 4 4 5 5 3 4 4 4 4 4 4 5 6 5
4 5 5 5 5 5 5 4 4 4 4 4 4 4 4 4 4 5 4 5 4 4 4 4 4 4 5 5 4 4 5 5 5 5 5 5 5 7
5 5 5 5 5 5 5 5 5 4 4 4 4 4 4 4 5 5 5 5 5 4 5 4 4 4 3 3 4 4 4 5 6 5 5 4 5 4
5 6 5 5 5 5 5 5 5 5 5 4 4 4 4 4 5 5 5 4 4 4 5 4 3 3 3 4 5 5 5 5 5 7 8 8 5 4
6 5 5 5 5 5 5 5 6 5 5 4 4 4 4 4 4 4 4 4 4 4 4 3 3 3 3 4 4 5 6 6 5 5 4 6 9 12
Wind_Direction
243 237 237 242 244 248 252 251 259 271 273 261 261 261 271 278 286 283 282 284 285 284 284 285 284 284 283 282 281 280 280 281 280 278 278 278 276 281
241 243 244 246 247 249 250 253 253 261 271 275 272 273 274 279 286 287 286 287 275 275 282 283 282 281 282 283 280 277 276 278 279 280 281 282 280 280
236 242 246 250 251 251 252 250 251 252 265 279 282 276 271 276 283 283 284 284 281 277 278 279 281 281 281 280 280 278 276 278 279 279 281 282 282 279
245 246 248 249 250 251 250 250 252 252 259 273 281 285 279 277 279 282 286 282 281 283 283 282 283 282 281 280 280 279 279 280 279 279 280 282 282 279
250 251 251 249 251 252 252 254 256 258 258 266 276 283 283 279 284 285 286 285 284 285 282 279 281 280 283 281 278 277 277 277 277 278 278 280 279 276
254 254 254 251 252 254 254 255 257 259 260 261 269 277 280 281 279 283 289 288 284 286 282 281 280 279 279 278 278 278 277 274 274 276 278 280 277 275
259 257 255 257 259 258 257 257 257 258 259 261 265 272 273 274 271 276 279 288 286 282 285 281 280 278 278 273 272 278 280 278 276 275 277 279 278 275
260 260 259 256 257 258 259 260 258 255 256 259 262 263 268 271 273 272 275 283 283 279 285 285 282 280 279 279 280 280 279 279 277 277 276 277 277 275
261 262 264 263 261 260 260 259 257 258 258 261 263 264 269 268 265 266 269 274 276 282 284 280 283 282 281 281 283 282 282 281 279 276 274 273 275 274
261 261 264 265 263 265 264 262 260 259 260 260 264 268 269 269 268 270 272 278 278 268 262 272 279 281 284 277 276 281 286 288 287 282 277 275 274 273
263 262 262 264 267 267 263 261 265 268 264 263 270 272 271 265 262 268 265 267 276 270 261 267 278 287 283 276 275 277 282 289 291 290 289 286 283 281
270 267 260 263 269 267 261 258 262 271 275 274 271 266 263 252 245 246 250 256 269 268 253 256 270 289 286 273 276 285 284 287 292 291 290 285 283 283
273 272 268 267 268 270 269 262 269 279 273 270 271 270 267 258 254 254 251 252 258 261 250 258 268 272 273 283 288 280 281 287 290 288 289 286 284 279
272 273 272 268 269 268 268 270 275 275 269 267 267 265 265 265 266 267 267 267 264 263 254 253 260 263 271 279 281 286 285 287 284 285 289 292 288 281
278 280 280 277 276 269 267 268 266 262 261 263 264 270 275 275 275 277 277 272 275 269 258 254 255 259 262 266 275 284 290 288 277 280 287 287 286 286
282 282 280 278 274 273 269 261 255 257 260 263 268 275 280 274 269 270 272 273 279 279 272 262 258 258 262 265 268 275 278 277 284 288 288 285 284 282
291 283 280 279 274 272 270 266 263 260 263 267 269 272 271 268 271 272 269 268 267 273 282 281 273 266 263 263 265 266 271 277 280 282 286 287 283 277
286 274 272 271 272 272 270 269 265 262 266 267 265 265 266 267 272 271 266 264 265 268 271 277 282 285 275 263 244 259 268 276 282 281 280 281 284 282
274 272 270 268 270 270 267 267 268 270 269 264 264 265 266 267 267 268 266 266 268 272 272 271 269 265 270 279 274 241 266 283 287 285 279 277 282 288
265 267 268 269 268 267 266 266 267 268 264 263 264 264 262 263 264 264 261 263 268 274 276 270 261 256 259 275 283 285 276 277 282 283 286 285 283 283
264 265 265 265 265 264 264 264 263 262 263 263 262 260 260 259 261 262 262 260 264 267 268 272 274 277 283 278 274 277 283 274 272 272 280 284 286 284
263 265 265 263 262 262 260 259 258 258 257 257 259 259 259 258 260 262 259 258 262 265 272 278 282 273 261 257 269 282 291 295 290 283 272 263 269 276
265 265 264 263 260 260 259 256 253 253 252 253 255 257 257 260 263 263 260 260 262 261 264 273 276 268 262 261 270 277 285 293 297 298 289 280 269 268
Height
1494 1495 1495 1495 1496 1496 1496 1496 1497 1494 1492 1491 1490 1488 1488 1486 1485 1485 1484 1483 1482 1482 1481 1480 1479 1478 1478 1477 1476 1476 1476 1475 1475 1475 1475 1475 1474 1474
1490 1491 1491 1491 1491 1491 1491 1491 1491 1491 1489 1487 1486 1485 1484 1483 1482 1481 1480 1479 1478 1477 1477 1475 1474 1474 1473 1472 1471 1471 1471 1470 1470 1469 1469 1469 1468 1468
1487 1487 1487 1487 1487 1487 1487 1487 1486 1486 1484 1482 1482 1481 1480 1479 1478 1477 1475 1474 1473 1473 1472 1471 1470 1469 1468 1467 1466 1466 1465 1465 1464 1464 1463 1463 1463 1463
1482 1482 1483 1483 1483 1483 1482 1482 1481 1481 1480 1478 1477 1476 1475 1474 1473 1472 1471 1469 1468 1467 1466 1465 1464 1463 1462 1462 1461 1460 1460 1459 1458 1458 1458 1457 1457 1456
1478 1478 1478 1478 1478 1478 1478 1477 1477 1476 1475 1474 1472 1471 1470 1470 1468 1467 1466 1465 1463 1462 1461 1460 1459 1458 1457 1456 1455 1455 1454 1453 1453 1452 1452 1451 1451 1450
1473 1473 1473 1472 1472 1473 1472 1472 1472 1471 1470 1469 1468 1467 1466 1465 1464 1462 1461 1460 1459 1458 1456 1455 1453 1452 1451 1450 1450 1449 1448 1447 1447 1446 1445 1445 1444 1444
1468 1468 1468 1467 1467 1467 1467 1467 1466 1466 1465 1464 1463 1462 1461 1460 1459 1458 1457 1455 1454 1453 1452 1450 1449 1447 1446 1445 1444 1443 1442 1441 1441 1440 1439 1439 1438 1438
1463 1462 1462 1462 1462 1462 1461 1461 1461 1461 1460 1459 1458 1457 1456 1456 1455 1454 1452 1450 1449 1449 1447 1445 1444 1442 1441 1440 1438 1438 1437 1436 1435 1434 1433 1433 1432 1431
1458 1457 1457 1456 1456 1456 1455 1455 1455 1455 1455 1454 1453 1452 1451 1450 1450 1449 1447 1446 1445 1444 1442 1440 1439 1437 1436 1434 1433 1432 1431 1430 1429 1428 1427 1427 1426 1425
1453 1452 1452 1451 1451 1450 1450 1449 1449 1448 1448 1448 1448 1446 1446 1445 1445 1444 1443 1441 1440 1439 1438 1435 1434 1433 1431 1429 1428 1427 1426 1425 1423 1422 1422 1421 1420 1420
1448 1447 1446 1446 1445 1445 1445 1444 1443 1443 1442 1442 1441 1440 1439 1439 1439 1439 1437 1436 1434 1434 1433 1431 1429 1427 1426 1424 1423 1422 1421 1419 1418 1417 1416 1415 1415 1414
1443 1442 1441 1441 1440 1440 1439 1438 1437 1437 1437 1436 1435 1434 1434 1433 1433 1433 1432 1431 1430 1428 1428 1427 1425 1424 1421 1419 1418 1417 1416 1414 1413 1412 1411 1410 1410 1409
1438 1437 1436 1436 1435 1435 1434 1434 1433 1432 1431 1430 1429 1429 1428 1428 1428 1427 1427 1426 1425 1424 1423 1423 1421 1420 1418 1415 1413 1412 1411 1410 1408 1407 1406 1405 1405 1405
1433 1432 1431 1431 1430 1429 1429 1428 1428 1427 1426 1425 1424 1423 1423 1422 1422 1421 1421 1421 1420 1419 1418 1417 1416 1415 1414 1411 1409 1408 1407 1405 1404 1402 1401 1400 1400 1400
1429 1428 1427 1426 1425 1424 1424 1423 1423 1422 1421 1420 1419 1418 1418 1417 1416 1416 1415 1415 1414 1413 1412 1412 1412 1410 1410 1407 1405 1403 1402 1401 1400 1398 1397 1396 1395 1394
1424 1423 1422 1420 1420 1419 1419 1418 1418 1417 1416 1415 1414 1413 1413 1412 1411 1411 1410 1410 1409 1408 1408 1407 1406 1406 1404 1403 1401 1399 1398 1397 1395 1394 1393 1392 1391 1390
1419 1418 1417 1416 1415 1414 1414 1413 1413 1412 1412 1411 1410 1409 1408 1407 1407 1406 1406 1405 1404 1403 1402 1402 1402 1401 1399 1398 1396 1395 1394 1393 1392 1390 1389 1387 1386 1386
1416 1414 1413 1412 1411 1410 1409 1409 1408 1408 1407 1406 1405 1404 1404 1403 1402 1402 1401 1401 1400 1399 1398 1398 1397 1396 1395 1393 1393 1391 1390 1389 1388 1387 1385 1383 1382 1382
1412 1410 1409 1408 1407 1406 1405 1404 1404 1403 1402 1402 1401 1400 1399 1399 1398 1397 1397 1396 1396 1395 1394 1394 1393 1392 1391 1389 1388 1388 1387 1385 1384 1382 1381 1380 1378 1377
1407 1406 1405 1404 1403 1402 1401 1400 1400 1399 1398 1397 1397 1396 1395 1395 1394 1393 1393 1392 1392 1391 1390 1389 1389 1388 1387 1386 1384 1383 1383 1382 1380 1378 1377 1376 1374 1373
1402 1401 1400 1399 1399 1398 1397 1396 1395 1395 1394 1393 1393 1392 1391 1391 1390 1389 1389 1388 1388 1387 1386 1385 1385 1385 1384 1383 1381 1379 1379 1378 1377 1375 1373 1372 1370 1369
1398 1397 1396 1395 1394 1394 1393 1392 1391 1391 1390 1389 1389 1388 1387 1387 1386 1386 1385 1384 1384 1383 1382 1382 1381 1381 1380 1379 1377 1375 1374 1374 1373 1371 1370 1369 1367 1365
1393 1392 1392 1391 1390 1389 1389 1388 1387 1386 1386 1385 1384 1384 1383 1383 1382 1382 1381 1381 1380 1379 1379 1378 1378 1377 1376 1376 1374 1373 1371 1370 1369 1367 1366 1365 1364 1363